Location: Saint-Restitut
(44.3351°N, 4.7915°E)
Time: 03:01:49
(UTC+00:00)

Genesis I - Pass Details

Date: 03 February 2023
Orbit: 466 x 515 km, 64.5° (Epoch: 27 March)

Event Time Altitude Azimuth Distance (km) Brightness Sun altitude
Rises 18:53:46 0° 226° (SW) 2,636 7.5 -21.9°
Reaches altitude 10° 18:55:58 10° 231° (SW) 1,756 6.6 -22.3°
Maximum altitude 18:59:50 53° 309° (NW) 651 3.9 -23.0°
Enters shadow 19:00:37 44° 350° (N) 731 3.9 -23.1°
